EW5819 Weather Reports


time (UTC)temp
C
wind
direction
speed
KPH
gust
KPH
rain 1hr
cm
rain 24hr
cm
rain mn
cm
humidity
%
barometer
mb
20260504014608 11 114 0.0 0.0 0.00 0.00 0.00 69 1015.4
20260504014136 11 114 0.0 0.0 0.00 0.00 0.00 69 1015.5
20260504013644 12 114 0.0 0.0 0.00 0.00 0.00 68 1015.5
20260504013008 12 114 0.0 0.0 0.00 0.00 0.00 66 1015.5
20260504012508 12 114 0.0 0.0 0.00 0.00 0.00 65 1015.3
20260504012020 12 114 0.0 0.0 0.00 0.00 0.00 64 1015.3
20260504011523 12 114 0.0 0.0 0.00 0.00 0.00 63 1015.3
20260504011048 13 114 0.0 0.0 0.00 0.00 0.00 60 1015.3
20260504010551 13 114 0.0 0.0 0.00 0.00 0.00 60 1015.4
20260504010056 13 114 0.0 0.0 0.00 0.00 0.00 59 1015.3
20260504005603 14 114 0.0 0.0 0.00 0.00 0.00 57 1015.3
20260504005108 14 114 0.0 0.0 0.00 0.00 0.00 57 1015.2
20260504004616 15 114 0.0 0.0 0.00 0.00 0.00 56 1015.1
20260504004145 15 114 0.0 0.0 0.00 0.00 0.00 54 1015.1
20260504003506 15 114 0.0 0.0 0.00 0.00 0.00 53 1015.0
20260504003015 16 114 0.0 0.0 0.00 0.00 0.00 53 1015.1
20260504002538 16 114 0.0 0.0 0.00 0.00 0.00 51 1015.2
20260504002044 16 115 0.0 0.0 0.00 0.00 0.00 50 1015.2
20260504001551 16 114 0.0 0.0 0.00 0.00 0.00 49 1015.2
20260504001058 17 115 0.0 1.6 0.00 0.00 0.00 47 1015.1
20260504000605 17 115 0.0 1.6 0.00 0.00 0.00 47 1015.1
20260504000139 17 113 0.0 1.6 0.00 0.00 0.00 45 1015.1
20260503235617 18 113 0.0 3.2 0.00 0.00 0.00 44 1015.1
20260503235123 18 185 0.0 3.2 0.00 0.00 0.00 43 1015.1
20260503234505 19 213 0.0 1.6 0.00 0.00 0.00 41 1015.2
20260503234013 20 144 0.0 1.6 0.00 0.00 0.00 39 1015.3
20260503233540 20 236 0.0 1.6 0.00 0.00 0.00 39 1015.3
20260503233046 20 131 0.0 3.2 0.00 0.00 0.00 39 1015.3
20260503232556 20 218 0.0 3.2 0.00 0.00 0.00 38 1015.4
20260503232101 20 120 0.0 3.2 0.00 0.00 0.00 38 1015.4
20260503231605 20 278 0.0 6.4 0.00 0.00 0.00 37 1015.4
20260503231114 20 222 0.0 8.0 0.00 0.00 0.00 37 1015.4
20260503230639 20 146 1.6 8.0 0.00 0.00 0.00 37 1015.5
20260503230141 20 99 1.6 4.8 0.00 0.00 0.00 37 1015.5
20260503225643 20 200 1.6 4.8 0.00 0.00 0.00 37 1015.6
20260503225055 20 162 1.6 8.0 0.00 0.00 0.00 38 1015.6
20260503224600 20 282 0.0 6.4 0.00 0.00 0.00 38 1015.7
20260503224108 20 277 1.6 6.4 0.00 0.00 0.00 38 1015.7
20260503223559 20 124 1.6 6.4 0.00 0.00 0.00 37 1015.7
20260503223103 20 131 0.0 6.4 0.00 0.00 0.00 36 1015.7
20260503222607 20 173 0.0 8.0 0.00 0.00 0.00 38 1015.7
20260503222116 20 283 1.6 8.0 0.00 0.00 0.00 36 1015.8
20260503221618 20 149 1.6 4.8 0.00 0.00 0.00 36 1015.8
20260503221002 20 37 0.0 11.3 0.00 0.00 0.00 38 1015.8
20260503220509 20 290 1.6 11.3 0.00 0.00 0.00 38 1015.8
20260503220036 20 316 1.6 9.7 0.00 0.00 0.00 38 1015.9
20260503215517 20 266 0.0 6.4 0.00 0.00 0.00 38 1016.0
20260503215046 20 282 3.2 6.4 0.00 0.00 0.00 35 1016.0
20260503214555 20 304 3.2 8.0 0.00 0.00 0.00 41 1016.1
20260503214105 20 329 3.2 8.0 0.00 0.00 0.00 37 1016.1
20260503213610 20 122 1.6 14.5 0.00 0.00 0.00 36 1016.1
20260503213114 20 337 3.2 14.5 0.00 0.00 0.00 37 1016.2
20260503212616 20 284 3.2 12.9 0.00 0.00 0.00 36 1016.3
20260503212107 20 198 3.2 9.7 0.00 0.00 0.00 38 1016.3
20260503211640 20 137 1.6 9.7 0.00 0.00 0.00 35 1016.4
20260503211003 20 210 3.2 11.3 0.00 0.00 0.00 41 1016.5
20260503210508 20 327 3.2 9.7 0.00 0.00 0.00 35 1016.5
20260503210014 20 123 1.6 11.3 0.00 0.00 0.00 38 1016.6
20260503205544 20 295 3.2 11.3 0.00 0.00 0.00 33 1016.6
20260503205026 20 193 1.6 12.9 0.00 0.00 0.00 35 1016.7
20260503204556 20 216 0.0 8.0 0.00 0.00 0.00 35 1016.7
20260503204103 20 9 0.0 8.0 0.00 0.00 0.00 37 1016.8
20260503203608 20 267 1.6 8.0 0.00 0.00 0.00 36 1016.9
20260503203121 20 160 1.6 9.7 0.00 0.00 0.00 35 1017.0
20260503202618 20 243 1.6 9.7 0.00 0.00 0.00 37 1017.1
20260503202147 20 140 1.6 12.9 0.00 0.00 0.00 39 1017.1
20260503201509 20 262 4.8 12.9 0.00 0.00 0.00 36 1017.2
20260503201043 20 277 1.6 11.3 0.00 0.00 0.00 40 1017.4
20260503200511 20 330 3.2 11.3 0.00 0.00 0.00 38 1017.4
20260503200015 20 309 1.6 9.7 0.00 0.00 0.00 37 1017.5
20260503195518 20 310 1.6 8.0 0.00 0.00 0.00 35 1017.5
20260503195025 20 135 1.6 8.0 0.00 0.00 0.00 36 1017.7
20260503194555 19 326 0.0 9.7 0.00 0.00 0.00 41 1017.7
20260503194059 18 277 0.0 9.7 0.00 0.00 0.00 37 1017.8
20260503193607 18 336 3.2 8.0 0.00 0.00 0.00 37 1017.9
20260503193112 18 351 1.6 11.3 0.00 0.00 0.00 35 1017.8
20260503192616 18 129 4.8 11.3 0.00 0.00 0.00 37 1017.9
20260503192140 18 107 1.6 9.7 0.00 0.00 0.00 38 1017.9
20260503191502 18 340 3.2 8.0 0.00 0.00 0.00 39 1018.0
20260503191007 18 290 1.6 8.0 0.00 0.00 0.00 38 1018.1
20260503190535 18 247 1.6 11.3 0.00 0.00 0.00 35 1018.1
20260503190041 18 333 4.8 11.3 0.00 0.00 0.00 34 1018.2
20260503185525 19 139 1.6 4.8 0.00 0.00 0.00 39 1018.2
20260503185052 18 178 0.0 6.4 0.00 0.00 0.00 40 1018.2
20260503184619 18 137 3.2 9.7 0.00 0.00 0.00 37 1018.4
20260503184105 18 297 3.2 9.7 0.00 0.00 0.00 36 1018.5
20260503183612 18 291 1.6 9.7 0.00 0.00 0.00 44 1018.6
20260503183117 17 232 0.0 6.4 0.00 0.00 0.00 44 1018.5
20260503182515 17 339 3.2 6.4 0.00 0.00 0.00 38 1018.7
20260503182004 17 330 3.2 8.0 0.00 0.00 0.00 40 1018.7
20260503181509 17 91 1.6 9.7 0.00 0.00 0.00 42 1018.9
20260503181038 17 148 1.6 12.9 0.00 0.00 0.00 39 1018.9
20260503180544 17 302 3.2 12.9 0.00 0.00 0.00 42 1018.9
20260503180054 17 137 3.2 8.0 0.00 0.00 0.00 38 1018.9
20260503175559 17 134 3.2 6.4 0.00 0.00 0.00 44 1018.9
20260503175107 17 193 0.0 8.0 0.00 0.00 0.00 37 1019.0
20260503174613 17 169 1.6 9.7 0.00 0.00 0.00 43 1019.1
20260503174118 17 254 1.6 9.7 0.00 0.00 0.00 42 1019.1
20260503173623 17 306 1.6 8.0 0.00 0.00 0.00 46 1019.3
20260503173006 17 3 1.6 4.8 0.00 0.00 0.00 44 1019.3
20260503172512 17 18 1.6 4.8 0.00 0.00 0.00 43 1019.4
20260503172016 17 283 1.6 4.8 0.00 0.00 0.00 41 1019.4
20260503171607 17 18 1.6 4.8 0.00 0.00 0.00 42 1019.5
20260503171056 17 83 1.6 6.4 0.00 0.00 0.00 42 1019.6
20260503170600 16 143 1.6 6.4 0.00 0.00 0.00 38 1019.6
20260503170107 16 339 1.6 8.0 0.00 0.00 0.00 39 1019.7
20260503160104 15 309 1.6 6.4 0.00 0.00 0.00 46 1020.3
20260503150612 13 41 1.6 6.4 0.00 0.00 0.00 49 1020.6
20260503150140 13 280 3.2 6.4 0.00 0.00 0.00 51 1020.6
20260503131048 11 79 1.6 3.2 0.00 0.00 0.00 69 1020.5
20260503130553 11 76 0.0 3.2 0.00 0.00 0.00 70 1020.4
20260503110506 3 203 0.0 0.0 0.00 0.00 0.00 94 1019.3
20260503090107 5 226 0.0 0.0 0.00 0.00 0.00 92 1018.2
20260503081517 5 226 0.0 0.0 0.00 0.00 0.00 91 1017.9
20260503081046 5 226 0.0 0.0 0.00 0.00 0.00 91 1017.8
20260503080553 5 226 0.0 0.0 0.00 0.00 0.00 91 1017.8
20260503080108 5 226 0.0 0.0 0.00 0.00 0.00 90 1017.7
20260503072509 6 226 0.0 0.0 0.00 0.00 0.00 89 1017.5
20260503072042 6 226 0.0 0.0 0.00 0.00 0.00 88 1017.4
20260503071557 6 226 0.0 0.0 0.00 0.00 0.00 88 1017.3
20260503071046 6 226 0.0 0.0 0.00 0.00 0.00 87 1017.2
20260503070554 6 226 0.0 0.0 0.00 0.00 0.00 87 1017.2
20260503060118 6 287 0.0 0.0 0.00 0.00 0.00 87 1017.1
20260503055005 6 287 0.0 0.0 0.00 0.00 0.00 86 1017.1
20260503054518 6 288 0.0 0.0 0.00 0.00 0.00 86 1017.1
20260503054014 6 288 0.0 1.6 0.00 0.00 0.00 85 1017.1
20260503053542 7 288 0.0 1.6 0.00 0.00 0.00 84 1017.1
20260503053051 7 288 0.0 1.6 0.00 0.00 0.00 84 1017.0
20260503052558 7 288 0.0 1.6 0.00 0.00 0.00 83 1017.1
20260503052102 7 289 0.0 1.6 0.00 0.00 0.00 82 1017.1
20260503051609 7 289 0.0 0.0 0.00 0.00 0.00 82 1017.0
20260503051115 7 289 0.0 1.6 0.00 0.00 0.00 81 1017.0
20260503050611 7 289 0.0 1.6 0.00 0.00 0.00 81 1017.0
20260503050139 7 289 0.0 0.0 0.00 0.00 0.00 80 1017.0
20260503045503 7 289 0.0 1.6 0.00 0.00 0.00 79 1017.0
20260503045011 7 289 0.0 1.6 0.00 0.00 0.00 79 1017.1
20260503044531 8 289 0.0 0.0 0.00 0.00 0.00 78 1017.0
20260503044023 8 289 0.0 0.0 0.00 0.00 0.00 78 1017.0
20260503043556 8 289 0.0 0.0 0.00 0.00 0.00 77 1016.9
20260503043101 8 289 0.0 0.0 0.00 0.00 0.00 76 1016.9
20260503042610 8 290 0.0 0.0 0.00 0.00 0.00 74 1016.8
20260503042113 8 289 0.0 1.6 0.00 0.00 0.00 74 1016.7
20260503041616 9 289 0.0 1.6 0.00 0.00 0.00 73 1016.7
20260503041002 9 289 0.0 4.8 0.00 0.00 0.00 73 1016.7
20260503040513 10 325 0.0 1.6 0.00 0.00 0.00 73 1016.7
20260503040020 10 345 0.0 1.6 0.00 0.00 0.00 70 1016.7
20260503035550 10 334 0.0 1.6 0.00 0.00 0.00 70 1016.7
20260503035057 10 139 0.0 1.6 0.00 0.00 0.00 70 1016.6
20260503034606 10 139 0.0 1.6 0.00 0.00 0.00 68 1016.6
20260503034134 11 139 0.0 1.6 0.00 0.00 0.00 67 1016.6
20260503033640 11 139 0.0 6.4 0.00 0.00 0.00 67 1016.6
20260503033123 11 111 1.6 8.0 0.00 0.00 0.00 66 1016.4
20260503032509 11 1 1.6 8.0 0.00 0.00 0.00 66 1016.5
20260503032016 11 297 1.6 8.0 0.00 0.00 0.00 66 1016.6
20260503031526 11 325 3.2 16.1 0.00 0.00 0.00 65 1016.5
20260503031051 11 1 4.8 16.1 0.00 0.00 0.00 65 1016.6
20260503030556 11 12 4.8 12.9 0.00 0.00 0.00 65 1016.7
20260503030104 11 307 3.2 11.3 0.00 0.00 0.00 65 1016.6
20260503025609 11 300 6.4 11.3 0.00 0.00 0.00 64 1016.7
20260503025116 12 13 3.2 12.9 0.00 0.00 0.00 62 1016.6
20260503024645 12 335 4.8 12.9 0.00 0.00 0.00 61 1016.5
20260503024011 12 8 4.8 14.5 0.00 0.00 0.00 59 1016.3
20260503023535 12 325 4.8 9.7 0.00 0.00 0.00 57 1016.1
20260503023015 12 342 4.8 11.3 0.00 0.00 0.00 56 1016.0
20260503022545 12 340 1.6 11.3 0.00 0.00 0.00 56 1016.0
20260503022055 12 305 1.6 8.0 0.00 0.00 0.00 56 1015.9
20260503021603 11 1 1.6 8.0 0.00 0.00 0.00 59 1015.8
20260503021059 11 290 0.0 1.6 0.00 0.00 0.00 63 1015.8
20260503020609 11 288 0.0 1.6 0.00 0.00 0.00 62 1015.8
20260503020134 11 288 0.0 1.6 0.00 0.00 0.00 62 1015.7
20260503015638 11 288 0.0 1.6 0.00 0.00 0.00 63 1015.7
20260503015144 11 299 0.0 1.6 0.00 0.00 0.00 61 1015.5